Location: Nairn
(57.5833°N, 3.8667°W)
Time: 02:39:46
(UTC+00:00)

Vanguard 1 Rocket - Pass Details

Date: 04 December 2020
Orbit: 655 x 4221 km, 34.3° (Epoch: 20 January)

Event Time Altitude Azimuth Distance (km) Brightness Sun altitude
Exits shadow 02:12:31 34° 158° (SSE) 5,040 10.8 -47.9°
Drops below altitude 10° 02:24:56 10° 118° (ESE) 5,798 11.6 -46.7°
Sets 02:29:05 0° 111° (ESE) 6,380 12.0 -46.2°
